| time (UTC) | temp F | wind direction | speed MPH | gust MPH | rain 1hr in | rain 24hr in | rain mn in | humidity % | barometer mb |
| 20260505204605 | 64 | 0.0 | 0.0 | 0.00 | 0.00 | 0.00 | 55 | 1003.0 | |
| 20260505203108 | 65 | 0.0 | 0.0 | 0.00 | 0.00 | 0.00 | 54 | 1002.6 | |
| 20260505201559 | 65 | 0.0 | 0.0 | 0.00 | 0.00 | 0.00 | 53 | 1002.4 | |
| 20260505200110 | 65 | 0.0 | 0.0 | 0.00 | 0.00 | 0.00 | 53 | 1002.3 | |
| 20260505194558 | 66 | 0.0 | 0.0 | 0.00 | 0.00 | 0.00 | 52 | 1002.4 | |
| 20260505193104 | 66 | 0.0 | 0.0 | 0.00 | 0.00 | 0.00 | 52 | 1002.2 | |
| 20260505191608 | 66 | 0.0 | 0.0 | 0.00 | 0.00 | 0.00 | 51 | 1002.2 | |
| 20260505190057 | 67 | 0.0 | 0.0 | 0.00 | 0.00 | 0.00 | 51 | 1002.3 | |
| 20260505184558 | 67 | 0.0 | 0.0 | 0.00 | 0.00 | 0.00 | 50 | 1002.3 | |
| 20260505183056 | 67 | 0.0 | 0.0 | 0.00 | 0.00 | 0.00 | 49 | 1002.1 | |
| 20260505181558 | 68 | 0.0 | 0.0 | 0.00 | 0.00 | 0.00 | 48 | 1002.1 | |
| 20260505180054 | 68 | 0.0 | 0.0 | 0.00 | 0.00 | 0.00 | 47 | 1002.2 | |
| 20260505174602 | 69 | 0.0 | 0.0 | 0.00 | 0.00 | 0.00 | 45 | 1002.1 | |
| 20260505173056 | 70 | 0.0 | 0.0 | 0.00 | 0.00 | 0.00 | 44 | 1002.2 | |
| 20260505171553 | 72 | 0.0 | 0.0 | 0.00 | 0.00 | 0.00 | 43 | 1002.2 | |
| 20260505170052 | 73 | 0.0 | 0.0 | 0.00 | 0.00 | 0.00 | 41 | 1002.2 | |
| 20260505164551 | 74 | 0.0 | 0.0 | 0.00 | 0.00 | 0.00 | 41 | 1002.3 | |
| 20260505163053 | 73 | 0.0 | 0.0 | 0.00 | 0.00 | 0.00 | 41 | 1002.4 | |
| 20260505161550 | 73 | 0.0 | 0.0 | 0.00 | 0.00 | 0.00 | 41 | 1002.4 | |
| 20260505153048 | 75 | 0.0 | 0.0 | 0.00 | 0.00 | 0.00 | 38 | 1002.6 | |
| 20260505151548 | 77 | 0.0 | 0.0 | 0.00 | 0.00 | 0.00 | 37 | 1002.6 | |
| 20260505124539 | 81 | 0.0 | 0.0 | 0.00 | 0.00 | 0.00 | 25 | 1003.6 | |
| 20260505123036 | 83 | 0.0 | 0.0 | 0.00 | 0.00 | 0.00 | 24 | 1003.8 | |
| 20260505121538 | 82 | 0.0 | 0.0 | 0.00 | 0.00 | 0.00 | 24 | 1004.0 | |
| 20260505120033 | 82 | 0.0 | 0.0 | 0.00 | 0.00 | 0.00 | 24 | 1004.1 | |
| 20260505114530 | 81 | 0.0 | 0.0 | 0.00 | 0.00 | 0.00 | 25 | 1004.3 | |
| 20260505113027 | 81 | 0.0 | 0.0 | 0.00 | 0.00 | 0.00 | 27 | 1004.4 | |
| 20260505111526 | 80 | 0.0 | 0.0 | 0.00 | 0.00 | 0.00 | 29 | 1004.6 | |
| 20260505101512 | 75 | 0.0 | 0.0 | 0.00 | 0.00 | 0.00 | 44 | 1005.9 | |
| 20260505100015 | 72 | 0.0 | 0.0 | 0.00 | 0.00 | 0.00 | 48 | 1006.1 | |
| 20260505094504 | 70 | 0.0 | 0.0 | 0.00 | 0.00 | 0.00 | 48 | 1006.4 | |
| 20260505093002 | 70 | 0.0 | 0.0 | 0.00 | 0.00 | 0.00 | 49 | 1006.6 | |
| 20260505091611 | 67 | 0.0 | 0.0 | 0.00 | 0.00 | 0.00 | 53 | 1006.8 | |
| 20260505090105 | 67 | 0.0 | 0.0 | 0.00 | 0.00 | 0.00 | 52 | 1007.0 | |
| 20260505084559 | 67 | 0.0 | 0.0 | 0.00 | 0.00 | 0.00 | 53 | 1007.0 | |
| 20260505083101 | 66 | 0.0 | 0.0 | 0.00 | 0.00 | 0.00 | 56 | 1007.1 | |
| 20260505081558 | 64 | 0.0 | 0.0 | 0.00 | 0.00 | 0.00 | 59 | 1007.2 | |
| 20260505080052 | 63 | 0.0 | 0.0 | 0.00 | 0.00 | 0.00 | 59 | 1007.2 | |
| 20260505074549 | 62 | 0.0 | 0.0 | 0.00 | 0.00 | 0.00 | 61 | 1007.1 | |
| 20260505073049 | 60 | 0.0 | 0.0 | 0.00 | 0.00 | 0.00 | 62 | 1007.3 | |
| 20260505071551 | 59 | 0.0 | 0.0 | 0.00 | 0.00 | 0.00 | 65 | 1007.4 | |
| 20260505070049 | 58 | 0.0 | 0.0 | 0.00 | 0.00 | 0.00 | 66 | 1007.4 | |
| 20260505064550 | 58 | 0.0 | 0.0 | 0.00 | 0.00 | 0.00 | 66 | 1007.4 | |
| 20260505063047 | 58 | 0.0 | 0.0 | 0.00 | 0.00 | 0.00 | 66 | 1007.2 | |
| 20260505061549 | 58 | 0.0 | 0.0 | 0.00 | 0.00 | 0.00 | 67 | 1007.3 | |
| 20260505060048 | 58 | 0.0 | 0.0 | 0.00 | 0.00 | 0.00 | 68 | 1007.1 | |
| 20260505054553 | 57 | 0.0 | 0.0 | 0.00 | 0.00 | 0.00 | 70 | 1007.0 | |
| 20260505053045 | 56 | 0.0 | 0.0 | 0.00 | 0.00 | 0.00 | 72 | 1007.0 | |
| 20260505051545 | 55 | 0.0 | 0.0 | 0.00 | 0.00 | 0.00 | 75 | 1007.1 | |
| 20260505041544 | 51 | 0.0 | 0.0 | 0.00 | 0.00 | 0.00 | 79 | 1006.9 | |
| 20260505040041 | 51 | 0.0 | 0.0 | 0.00 | 0.00 | 0.00 | 78 | 1007.0 | |
| 20260505034540 | 51 | 0.0 | 0.0 | 0.00 | 0.00 | 0.00 | 78 | 1007.0 | |
| 20260505033041 | 51 | 0.0 | 0.0 | 0.00 | 0.00 | 0.00 | 77 | 1007.1 | |
| 20260505031551 | 52 | 0.0 | 0.0 | 0.00 | 0.00 | 0.00 | 77 | 1007.1 | |
| 20260505030035 | 52 | 0.0 | 0.0 | 0.00 | 0.00 | 0.00 | 76 | 1007.1 | |
| 20260505024545 | 52 | 0.0 | 0.0 | 0.00 | 0.00 | 0.00 | 76 | 1007.2 | |
| 20260505023039 | 53 | 0.0 | 0.0 | 0.00 | 0.00 | 0.00 | 75 | 1007.2 | |
| 20260505021530 | 53 | 0.0 | 0.0 | 0.00 | 0.00 | 0.00 | 75 | 1007.3 | |
| 20260505020029 | 53 | 0.0 | 0.0 | 0.00 | 0.00 | 0.00 | 74 | 1007.4 | |
| 20260505014535 | 53 | 0.0 | 0.0 | 0.00 | 0.00 | 0.00 | 73 | 1007.4 | |
| 20260505013024 | 54 | 0.0 | 0.0 | 0.00 | 0.00 | 0.00 | 71 | 1007.5 | |
| 20260505011522 | 55 | 0.0 | 0.0 | 0.00 | 0.00 | 0.00 | 70 | 1007.5 | |
| 20260505010021 | 55 | 0.0 | 0.0 | 0.00 | 0.00 | 0.00 | 68 | 1007.6 | |
| 20260505004518 | 56 | 0.0 | 0.0 | 0.00 | 0.00 | 0.00 | 66 | 1007.7 | |
| 20260505003014 | 57 | 0.0 | 0.0 | 0.00 | 0.00 | 0.00 | 65 | 1007.7 | |
| 20260505001512 | 58 | 0.0 | 0.0 | 0.00 | 0.00 | 0.00 | 63 | 1007.8 | |
| 20260505000011 | 59 | 0.0 | 0.0 | 0.00 | 0.00 | 0.00 | 61 | 1007.8 | |
| 20260504234504 | 60 | 0.0 | 0.0 | 0.00 | 0.00 | 0.00 | 59 | 1008.0 | |
| 20260504233104 | 61 | 0.0 | 0.0 | 0.00 | 0.00 | 0.00 | 56 | 1008.1 | |
| 20260504231600 | 61 | 0.0 | 0.0 | 0.00 | 0.00 | 0.00 | 56 | 1008.2 | |
| 20260504230059 | 61 | 0.0 | 0.0 | 0.00 | 0.00 | 0.00 | 56 | 1008.2 | |
| 20260504224556 | 61 | 0.0 | 0.0 | 0.00 | 0.00 | 0.00 | 56 | 1008.3 | |
| 20260504223054 | 62 | 0.0 | 0.0 | 0.00 | 0.00 | 0.00 | 55 | 1008.5 | |
| 20260504221552 | 63 | 0.0 | 0.0 | 0.00 | 0.00 | 0.00 | 54 | 1008.5 | |
| 20260504220048 | 63 | 0.0 | 0.0 | 0.00 | 0.00 | 0.00 | 52 | 1008.6 | |
| 20260504214553 | 64 | 0.0 | 0.0 | 0.00 | 0.00 | 0.00 | 50 | 1008.7 | |
| 20260504213045 | 65 | 0.0 | 0.0 | 0.00 | 0.00 | 0.00 | 49 | 1008.8 | |
| 20260504211545 | 65 | 0.0 | 0.0 | 0.00 | 0.00 | 0.00 | 48 | 1008.9 | |
| 20260504210056 | 66 | 0.0 | 0.0 | 0.00 | 0.00 | 0.00 | 46 | 1008.9 |